{"data":{"norad_id":66079,"intl_designator":"2025-235X","name":"STARLINK-35402","alt_names":[],"object_type":"PAYLOAD","status":"ACTIVE","operator":null,"country":"US","launch_date":"2025-10-19","launch_site_code":"AFETR","launch_vehicle":null,"mission":null,"orbit_class":"UNKNOWN","rcs_meters":null,"size_class":null,"mass_kg":null,"dimensions":null,"purposes":["comms"],"wikipedia_slug":null,"has_3d_model":false,"image_url":null,"decayed_at":null,"tle_current":{"epoch":"2026-09-20T21:45:49.539168Z","epoch_age_seconds":67869,"freshness":"FRESH","line1":"1 66079U 25235X   26263.90682337  .00019747  00000+0  59383-3 0  9990","line2":"2 66079  53.1600  57.5428 0000954  87.6943 272.4169 15.34411061 52825","mean_motion":15.34411061,"eccentricity":9.54e-5,"inclination_deg":53.16,"raan_deg":57.5428,"arg_perigee_deg":87.6943,"mean_anomaly_deg":272.4169,"bstar":0.00059383,"rev_number":5282,"period_min":93.847081567669,"perigee_km":462.017751759,"apogee_km":463.3229778042,"semimajor_km":6840.8073647816,"source":"CELESTRAK","updated_at":"2026-09-21T09:00:35.798452Z"}}}